IGO6209 VOMM-VOBL

Flight info

Callsign IGO6209
Flight time 0h 34m
Altitude 20000
Route MMV W117 BIA
Aircraft A21N/M-SDE3FGHIRWY/LB1

Departure

Time 2026-05-06 12:53
Airport Chennai International Airport (VOMM)

Arrival

Time 2026-05-06 13:28
Airport Kempegowda International Airport Bengaluru (VOBL)
Time Latitude Longitude Altitude Speed Heading
2026-05-06 12:25 12.98604 80.16605 55 ft 0 kts 339°
2026-05-06 12:25 12.98598 80.16607 48 ft 0 kts 339°
2026-05-06 12:45 12.98581 80.16613 49 ft 1 kts 336°
2026-05-06 12:46 12.98564 80.16622 51 ft 3 kts 320°
2026-05-06 12:46 12.98552 80.16636 51 ft 3 kts 287°
2026-05-06 12:46 12.98550 80.16655 47 ft 3 kts 255°
2026-05-06 12:46 12.98556 80.16673 48 ft 1 kts 250°
2026-05-06 12:49 12.98553 80.16665 49 ft 4 kts 249°
2026-05-06 12:49 12.98536 80.16617 49 ft 13 kts 249°
2026-05-06 12:49 12.98492 80.16495 54 ft 23 kts 250°
2026-05-06 12:49 12.98429 80.16325 52 ft 19 kts 251°
2026-05-06 12:50 12.98374 80.16173 54 ft 27 kts 250°
2026-05-06 12:50 12.98317 80.16019 55 ft 25 kts 248°
2026-05-06 12:50 12.98290 80.15906 55 ft 17 kts 280°
2026-05-06 12:50 12.98330 80.15765 51 ft 24 kts 286°
2026-05-06 12:51 12.98366 80.15630 56 ft 14 kts 285°
2026-05-06 12:51 12.98401 80.15505 56 ft 22 kts 285°
2026-05-06 12:51 12.98402 80.15398 55 ft 12 kts 255°
2026-05-06 12:51 12.98429 80.15333 55 ft 3 kts
2026-05-06 12:52 12.98445 80.15374 53 ft 8 kts 69°
2026-05-06 12:52 12.98455 80.15400 57 ft 8 kts 69°
2026-05-06 12:52 12.98498 80.15517 54 ft 40 kts 69°
2026-05-06 12:52 12.98686 80.16016 55 ft 106 kts 70°
2026-05-06 12:53 12.99017 80.16900 53 ft 155 kts 69°
2026-05-06 12:53 12.99447 80.18017 209 ft 177 kts 74°
2026-05-06 12:53 12.99878 80.19208 734 ft 180 kts 73°
2026-05-06 12:53 13.00343 80.20391 1297 ft 183 kts 60°
2026-05-06 12:54 13.01421 80.21104 1799 ft 197 kts 13°
2026-05-06 12:54 13.02860 80.21011 1965 ft 218 kts 351°
2026-05-06 12:54 13.04402 80.20616 2081 ft 238 kts 346°
2026-05-06 12:54 13.06085 80.20114 2229 ft 264 kts 345°
2026-05-06 12:55 13.07869 80.19583 2787 ft 275 kts 346°
2026-05-06 12:55 13.09688 80.18923 3564 ft 278 kts 332°
2026-05-06 12:55 13.11154 80.17615 4327 ft 283 kts 307°
2026-05-06 12:55 13.12252 80.15930 5125 ft 284 kts 304°
2026-05-06 12:56 13.13354 80.14233 5619 ft 287 kts 306°
2026-05-06 12:56 13.14458 80.12550 5747 ft 286 kts 305°
2026-05-06 12:56 13.15584 80.10845 6167 ft 289 kts 306°
2026-05-06 12:56 13.16664 80.09105 6920 ft 291 kts 298°
2026-05-06 12:57 13.17266 80.07102 7623 ft 297 kts 278°
2026-05-06 12:57 13.17208 80.04991 8307 ft 302 kts 259°
2026-05-06 12:57 13.16526 80.02941 8988 ft 306 kts 248°
2026-05-06 12:57 13.15710 80.00902 9675 ft 310 kts 249°
2026-05-06 12:58 13.14882 79.98820 10086 ft 323 kts 249°
2026-05-06 12:58 13.14008 79.96609 10202 ft 345 kts 249°
2026-05-06 12:58 13.13082 79.94254 10333 ft 365 kts 249°
2026-05-06 12:58 13.12111 79.91779 10642 ft 377 kts 249°
2026-05-06 12:59 13.11135 79.89296 11177 ft 381 kts 249°
2026-05-06 12:59 13.10134 79.86750 11808 ft 384 kts 249°
2026-05-06 12:59 13.09135 79.84200 12449 ft 385 kts 250°
2026-05-06 12:59 13.08413 79.81557 13112 ft 385 kts 261°
2026-05-06 13:00 13.08230 79.78853 13750 ft 384 kts 273°
2026-05-06 13:00 13.08593 79.76140 14332 ft 384 kts 284°
2026-05-06 13:00 13.09264 79.73480 14910 ft 385 kts 284°
2026-05-06 13:00 13.09928 79.70839 15469 ft 386 kts 284°
2026-05-06 13:01 13.10591 79.68167 15998 ft 387 kts 284°
2026-05-06 13:01 13.11255 79.65469 16512 ft 389 kts 284°
2026-05-06 13:01 13.11912 79.62792 17002 ft 391 kts 284°
2026-05-06 13:01 13.12581 79.60063 17468 ft 394 kts 284°
2026-05-06 13:02 13.13257 79.57330 17942 ft 396 kts 284°
2026-05-06 13:02 13.13936 79.54579 18361 ft 398 kts 284°
2026-05-06 13:02 13.14620 79.51807 18741 ft 400 kts 284°
2026-05-06 13:02 13.15299 79.49055 19104 ft 403 kts 284°
2026-05-06 13:03 13.15990 79.46260 19461 ft 406 kts 284°
2026-05-06 13:03 13.16688 79.43437 19732 ft 408 kts 284°
2026-05-06 13:03 13.17382 79.40623 19800 ft 414 kts 284°
2026-05-06 13:03 13.18099 79.37709 19814 ft 424 kts 283°
2026-05-06 13:04 13.18828 79.34753 19812 ft 427 kts 284°
2026-05-06 13:04 13.19551 79.31828 19815 ft 428 kts 284°
2026-05-06 13:04 13.20293 79.28829 19814 ft 428 kts 284°
2026-05-06 13:04 13.21021 79.25892 19816 ft 428 kts 284°
2026-05-06 13:05 13.21753 79.22950 19819 ft 428 kts 284°
2026-05-06 13:05 13.22493 79.19966 19822 ft 428 kts 284°
2026-05-06 13:05 13.23227 79.16998 19822 ft 428 kts 284°
2026-05-06 13:05 13.23950 79.14071 19827 ft 428 kts 284°
2026-05-06 13:06 13.24687 79.11083 19825 ft 428 kts 284°
2026-05-06 13:06 13.25409 79.08147 19832 ft 427 kts 284°
2026-05-06 13:06 13.26139 79.05177 19830 ft 427 kts 284°
2026-05-06 13:06 13.26870 79.02209 19834 ft 427 kts 284°
2026-05-06 13:07 13.27589 78.99284 19835 ft 427 kts 284°
2026-05-06 13:07 13.28319 78.96321 19836 ft 427 kts 284°
2026-05-06 13:07 13.29007 78.93345 19835 ft 427 kts 279°
2026-05-06 13:07 13.29280 78.90303 19834 ft 427 kts 270°
2026-05-06 13:08 13.29116 78.87298 19836 ft 427 kts 266°
2026-05-06 13:08 13.28891 78.84244 19840 ft 427 kts 266°
2026-05-06 13:08 13.28671 78.81231 19847 ft 428 kts 266°
2026-05-06 13:08 13.28451 78.78172 19845 ft 428 kts 266°
2026-05-06 13:09 13.28230 78.75110 19850 ft 428 kts 266°
2026-05-06 13:09 13.28015 78.72093 19853 ft 428 kts 266°
2026-05-06 13:09 13.27797 78.69034 19853 ft 428 kts 266°
2026-05-06 13:09 13.27575 78.65977 19855 ft 428 kts 266°
2026-05-06 13:10 13.27357 78.62960 19862 ft 428 kts 266°
2026-05-06 13:10 13.27136 78.59910 19862 ft 428 kts 266°
2026-05-06 13:10 13.26914 78.56839 19867 ft 429 kts 266°
2026-05-06 13:10 13.26691 78.53773 19866 ft 429 kts 266°
2026-05-06 13:11 13.26471 78.50766 19871 ft 429 kts 266°
2026-05-06 13:11 13.26272 78.47705 19871 ft 429 kts 269°
2026-05-06 13:11 13.26449 78.44650 19875 ft 428 kts 278°
2026-05-06 13:11 13.26934 78.41614 19877 ft 429 kts 279°
2026-05-06 13:12 13.27416 78.38630 19879 ft 429 kts 279°
2026-05-06 13:12 13.27904 78.35597 19878 ft 429 kts 279°
2026-05-06 13:12 13.28387 78.32573 19881 ft 429 kts 279°
2026-05-06 13:12 13.28871 78.29537 19885 ft 429 kts 279°
2026-05-06 13:13 13.29344 78.26549 19888 ft 429 kts 279°
2026-05-06 13:13 13.29827 78.23504 19888 ft 429 kts 279°
2026-05-06 13:13 13.30285 78.20504 19886 ft 429 kts 276°
2026-05-06 13:13 13.30437 78.17440 19742 ft 426 kts 271°
2026-05-06 13:14 13.30485 78.14403 19515 ft 423 kts 271°
2026-05-06 13:14 13.30524 78.11406 19157 ft 416 kts 271°
2026-05-06 13:14 13.30561 78.08482 18591 ft 411 kts 271°
2026-05-06 13:14 13.30599 78.05581 18045 ft 407 kts 271°
2026-05-06 13:15 13.30636 78.02690 17489 ft 401 kts 271°
2026-05-06 13:15 13.30674 77.99847 16994 ft 394 kts 271°
2026-05-06 13:15 13.30713 77.97086 16779 ft 381 kts 271°
2026-05-06 13:15 13.30752 77.94404 16657 ft 367 kts 271°
2026-05-06 13:16 13.30787 77.91820 16503 ft 354 kts 271°
2026-05-06 13:16 13.30820 77.89363 16355 ft 343 kts 271°
2026-05-06 13:16 13.30854 77.86943 16199 ft 332 kts 271°
2026-05-06 13:16 13.30885 77.84608 16062 ft 321 kts 271°
2026-05-06 13:17 13.30913 77.82358 15924 ft 311 kts 271°
2026-05-06 13:17 13.30941 77.80164 15788 ft 301 kts 271°
2026-05-06 13:17 13.30968 77.78070 15658 ft 291 kts 271°
2026-05-06 13:17 13.30992 77.75984 15245 ft 293 kts 271°
2026-05-06 13:18 13.31011 77.73866 14785 ft 297 kts 271°
2026-05-06 13:18 13.31027 77.71741 14328 ft 300 kts 271°
2026-05-06 13:18 13.31042 77.69581 13891 ft 303 kts 271°
2026-05-06 13:18 13.31058 77.67427 13408 ft 307 kts 271°
2026-05-06 13:19 13.31076 77.65218 12927 ft 309 kts 272°
2026-05-06 13:19 13.31095 77.63002 12453 ft 311 kts 272°
2026-05-06 13:19 13.31114 77.60800 11986 ft 312 kts 272°
2026-05-06 13:19 13.31132 77.58555 11508 ft 314 kts 272°
2026-05-06 13:20 13.31148 77.56322 11020 ft 305 kts 272°
2026-05-06 13:20 13.31159 77.54216 10579 ft 292 kts 272°
2026-05-06 13:20 13.31170 77.52170 10145 ft 280 kts 272°
2026-05-06 13:20 13.31183 77.50216 9819 ft 264 kts 272°
2026-05-06 13:21 13.31184 77.48382 9772 ft 254 kts 269°
2026-05-06 13:21 13.30667 77.46659 9656 ft 257 kts 238°
2026-05-06 13:21 13.29316 77.45511 9337 ft 259 kts 203°
2026-05-06 13:21 13.27578 77.45071 8900 ft 256 kts 190°
2026-05-06 13:22 13.25858 77.44740 8504 ft 242 kts 189°
2026-05-06 13:22 13.24260 77.44443 8147 ft 225 kts 188°
2026-05-06 13:22 13.22776 77.44529 7821 ft 214 kts 159°
2026-05-06 13:22 13.21562 77.45340 7301 ft 209 kts 128°
2026-05-06 13:23 13.20943 77.46633 6977 ft 199 kts 99°
2026-05-06 13:23 13.20877 77.47562 6812 ft 196 kts 89°
2026-05-06 13:23 13.20870 77.48955 6564 ft 194 kts 89°
2026-05-06 13:23 13.20859 77.50785 6254 ft 192 kts 89°
2026-05-06 13:24 13.20848 77.52162 6005 ft 192 kts 89°
2026-05-06 13:24 13.20841 77.53071 5844 ft 192 kts 89°
2026-05-06 13:24 13.20831 77.54438 5598 ft 192 kts 89°
2026-05-06 13:24 13.20820 77.55808 5359 ft 191 kts 90°
2026-05-06 13:25 13.20809 77.57171 5116 ft 188 kts 90°
2026-05-06 13:25 13.20799 77.58495 4892 ft 180 kts 90°
2026-05-06 13:25 13.20789 77.59698 4680 ft 161 kts 90°
2026-05-06 13:25 13.20780 77.60811 4475 ft 151 kts 90°
2026-05-06 13:26 13.20772 77.61881 4270 ft 147 kts 91°
2026-05-06 13:26 13.20763 77.62910 4091 ft 144 kts 90°
2026-05-06 13:26 13.20755 77.63939 3919 ft 144 kts 92°
2026-05-06 13:26 13.20746 77.64971 3734 ft 143 kts 92°
2026-05-06 13:27 13.20738 77.65985 3551 ft 143 kts 91°
2026-05-06 13:27 13.20729 77.67008 3369 ft 145 kts 93°
2026-05-06 13:27 13.20721 77.68038 3178 ft 143 kts 96°
2026-05-06 13:27 13.20715 77.69043 3014 ft 138 kts 94°
2026-05-06 13:28 13.20709 77.69867 3011 ft 87 kts 91°
2026-05-06 13:28 13.20705 77.70284 3011 ft 26 kts 90°
2026-05-06 13:28 13.20693 77.70412 3011 ft 12 kts 102°
2026-05-06 13:28 13.20668 77.70493 3011 ft 11 kts 111°
2026-05-06 13:29 13.20635 77.70561 3013 ft 10 kts 118°
2026-05-06 13:29 13.20615 77.70597 3011 ft 0 kts 122°
2026-05-06 13:30 13.20614 77.70597 3011 ft 1 kts 122°
2026-05-06 13:31 13.20586 77.70644 3011 ft 14 kts 121°
2026-05-06 13:31 13.20537 77.70737 3013 ft 15 kts 111°
2026-05-06 13:31 13.20530 77.70847 3015 ft 16 kts 91°
2026-05-06 13:31 13.20528 77.70964 3011 ft 17 kts 90°
2026-05-06 13:32 13.20527 77.71085 3011 ft 17 kts 91°
2026-05-06 13:32 13.20526 77.71210 3011 ft 18 kts 91°
2026-05-06 13:32 13.20494 77.71275 3011 ft 9 kts 163°
2026-05-06 13:32 13.20426 77.71276 3011 ft 10 kts 181°
2026-05-06 13:33 13.20353 77.71276 3011 ft 11 kts 180°
2026-05-06 13:33 13.20272 77.71275 3011 ft 12 kts 184°
2026-05-06 13:33 13.20243 77.71246 3011 ft 6 kts 251°
2026-05-06 13:33 13.20240 77.71208 3011 ft 5 kts 269°
2026-05-06 13:34 13.20240 77.71163 3011 ft 9 kts 270°
2026-05-06 13:34 13.20241 77.71088 3011 ft 9 kts 265°
2026-05-06 13:34 13.20223 77.71078 3011 ft 1 kts 175°
2026-05-06 13:34 13.20199 77.71078 3011 ft 1 kts 180°
2026-05-06 13:35 13.20188 77.71078 3011 ft 0 kts 180°